Regional Weather Roundup
Issued by NWS

Home | Current Version | Previous Version | Graphics & Text | Print | Product List | Glossary On
Versions: 1 2 3 4 5 6 7 8 9 10 11 12 13 14 15 16 17 18 19 20 21 22 23 24 25 26 27 28 29 30 31 32 33 34 35 36 37 38 39 40 41 42 43 44 45 46 47 48 49 50
000
ASUS43 KOAX 232010
RWRNE

WEATHER ROUNDUP FOR NEBRASKA
NATIONAL WEATHER SERVICE OMAHA NE
300 PM CDT SAT SEP 23 2017

NOTES: SATELLITE DATA IS BEING USED TO AUGMENT CLOUD COVER ABOVE
       12000 FEET.
       "FAIR" INDICATES FEW OR NO CLOUDS BELOW 12,000 FEET WITH NO
       SIGNIFICANT WEATHER AND/OR OBSTRUCTIONS TO VISIBILITY.


NEZ001>004-019>022-054>056-232100-
NEBRASKA PANHANDLE

CITY           SKY/WX    TMP DP  RH WIND       PRES   REMARKS
SCOTTSBLUFF    LGT RAIN  46  43  89 NE6       30.01F FOG
ALLIANCE       LGT RAIN  46  43  89 N7        30.00S
CHADRON        RAIN      46  43  89 N7        30.02R FOG
GORDON         CLOUDY    46  44  94 N5        29.99F
KIMBALL        CLOUDY    44  44 100 N10       29.97F FOG
SIDNEY         LGT RAIN  47  46  97 E12       29.94F
$$

NEZ057>060-069>072-079>082-232100-
SOUTHWEST NEBRASKA

CITY           SKY/WX    TMP DP  RH WIND       PRES   REMARKS
NORTH PLATTE   CLOUDY    56  53  90 NW16G24   29.95R
IMPERIAL       PTSUNNY   57  52  83 N12       29.92F
LEXINGTON      LGT RAIN  81  68  63 CALM      29.83F
MCCOOK         CLOUDY    71  57  61 NW18G33   29.85F
OGALLALA       CLOUDY    55  52  90 NE10      29.94F
$$

NEZ005>010-023>029-035>040-094-232100-
NORTH CENTRAL NEBRASKA

CITY           SKY/WX    TMP DP  RH WIND       PRES   REMARKS
VALENTINE      LGT RAIN  51  50  96 N8        29.96F FOG
AINSWORTH      CLOUDY    51  51 100 NE8       29.95F
BROKEN BOW     CLOUDY    63  55  75 N12       29.89F
O`NEILL        CLOUDY    56  56 100 NE6       29.95S FOG
ORD            PTSUNNY   75  57  53 N9        29.86F
THEDFORD       RAIN      51  50  97 NE5       29.96S
$$

NEZ041-046>049-061>064-073>077-083>087-232100-
SOUTH CENTRAL NEBRASKA

CITY           SKY/WX    TMP DP  RH WIND       PRES   REMARKS
GRAND ISLAND   PTSUNNY   84  68  58 S12       29.86F
AURORA         PTSUNNY   85  67  54 S7        29.87F
HASTINGS       PTSUNNY   82  64  54 SW13G23   29.88F
HEBRON         MOSUNNY   92  61  35 SE18G25   29.89F HX  92
HOLDREGE       PTSUNNY   87  60  40 S17G25    29.83F
KEARNEY        PTSUNNY   88  65  46 SE25      29.84F HX  90
YORK           MOSUNNY   91  61  35 S23G30    29.87F HX  91
$$

NEZ011>018-030>034-042>045-232100-
NORTHEAST NEBRASKA

CITY           SKY/WX    TMP DP  RH WIND       PRES   REMARKS
NORFOLK        PTSUNNY   86  69  56 S16       29.86F HX  90
ALBION         CLOUDY    84  68  57 S17G23    29.87F
BLAIR          MOSUNNY   90  65  44 S20G28    29.91F HX  91
COLUMBUS       PTSUNNY   91  66  43 S18G30    29.87F HX  93
FREMONT        MOSUNNY   89  64  43 SE13G23   29.89F HX  90
TEKAMAH        MOSUNNY   89  66  46 SE18G24   29.89F HX  91
WAYNE          PTSUNNY   83  70  63 S16       29.88F
$$

NEZ050>053-065>068-078-088>093-232100-
SOUTHEAST NEBRASKA

CITY           SKY/WX    TMP DP  RH WIND       PRES   REMARKS
LINCOLN        SUNNY     92  65  40 S18G26    29.89F HX  94
OMAHA EPPLEY   PTSUNNY   91  65  41 SE21G29   29.91F HX  93
BEATRICE       MOSUNNY   91  66  44 S15G23    29.91F HX  93
FALLS CITY     SUNNY     90  62  39 S15G24    29.94F HX  90
NEBRASKA CITY  MOSUNNY   89  66  45 S21       29.93F HX  91
PLATTSMOUTH    PTSUNNY   90  65  43 S13G24    29.92F HX  91
$$

NEZ044-045-051>053-067-232100-
OMAHA AREA

CITY           SKY/WX    TMP DP  RH WIND       PRES   REMARKS
OMAHA EPPLEY   PTSUNNY   91  65  41 SE21G29   29.91F HX  93
BLAIR          MOSUNNY   90  65  44 S20G28    29.91F HX  91
FREMONT        MOSUNNY   89  64  43 SE13G23   29.89F HX  90
MILLARD        PTSUNNY   92  68  44 S13G18    29.90F HX  96
OFFUTT AFB     SUNNY     91  66  43 SE18G25   29.90F HX  93
PLATTSMOUTH    PTSUNNY   90  65  43 S13G24    29.92F HX  91
WAHOO          FAIR      91  61  37 S21G26    29.89F HX  91
$$




USA.gov is the U.S. government's official web portal to all federal, state and local government web resources and services.